Regional Weather Roundup
Issued by NWS Little Rock, AR

Home | Current Version | Previous Version | Text Only | Print | Product List | Glossary On
Versions: 1 2 3 4 5 6 7 8 9 10 11 12 13 14 15 16 17 18 19 20 21 22 23 24 25 26 27 28 29 30 31 32 33 34 35 36 37 38 39 40 41 42 43 44 45 46 47 48 49 50
000
ASUS44 KLZK 272105
RWRLZK

WEATHER ROUNDUP FOR ARKANSAS
NATIONAL WEATHER SERVICE LITTLE ROCK AR
400 PM CDT THU JUL 27 2017

NOTE: "FAIR" INDICATES FEW OR NO CLOUDS BELOW 12,000 FEET WITH NO
SIGNIFICANT WEATHER AND/OR OBSTRUCTIONS TO VISIBILITY.

ARZ001-003-010-029-272200-
NORTHWEST ARKANSAS

CITY           SKY/WX    TMP DP  RH WIND       PRES   REMARKS
FAYETTEVILLE   CLOUDY    86  76  71 SW10      29.95F HX  96
FORT SMITH     CLOUDY    93  75  55 SW5       29.90F HX 104
HARRISON       CLOUDY    85  74  69 S3        29.97F HX  92
BENTONVILLE    CLOUDY    88  72  58 S5        29.97F HX  94
ROGERS         PTSUNNY   88  73  61 VRB3      29.97F HX  95
SILOAM SPGS    CLOUDY    90  72  55 SW9       29.95F HX  96
HIGHFILL       CLOUDY    89  72  56 SW9       29.96F HX  96
$$

ARZ004-005-016-272200-
NORTH CENTRAL ARKANSAS

CITY           SKY/WX    TMP DP  RH WIND       PRES   REMARKS
BATESVILLE     CLOUDY    90  75  62 CALM      29.92F HX 100
FLIPPIN        CLOUDY    82  72  69 CALM      29.93F HX  87
MTN HOME       CLOUDY    80  75  84 CALM      29.95F HX  85
$$

ARZ040-041-272200-
WEST CENTRAL ARKANSAS

CITY           SKY/WX    TMP DP  RH WIND       PRES   REMARKS
MENA           CLOUDY    97  72  44 SW9       29.96F HX 105
MOUNT IDA      PTSUNNY   96  67  38 CALM      29.93F HX 100
$$

ARZ009-017-025-026-028-272200-
NORTHEAST ARKANSAS

CITY           SKY/WX    TMP DP  RH WIND       PRES   REMARKS
CORNING        LGT RAIN  86  79  79 W7        29.92F HX  99
JONESBORO      CLOUDY    92  76  59 W7        29.90F HX 104
WALNUT RIDGE   CLOUDY    90  73  58 CALM      29.91F HX  98
BLYTHEVILLE    CLOUDY    83  77  82 SE5       29.93F HX  92
$$

ARZ022-023-033-042-044-272200-
CENTRAL ARKANSAS

CITY           SKY/WX    TMP DP  RH WIND       PRES   REMARKS
LITTLE ROCK    CLOUDY    93  77  59 SW10      29.92F HX 107
N LITTLE ROCK    N/A     92  76  60 SW5       29.90F HX 104
JACKSONVILLE   PTSUNNY   93  79  62 S12       29.90F HX 109
CONWAY           N/A     97  73  46 SW10      29.88F HX 107
SEARCY         CLOUDY    91  81  72 MISG        N/A  HX 111
HOT SPRINGS    CLOUDY    95  73  48 SW9       29.94F HX 104
RUSSELLVILLE   PTSUNNY   96  73  47 CALM      29.89F HX 105
CLINTON        FAIR      91  75  59 W5        29.92F HX 102
$$

ARZ036-272200-
EAST ARKANSAS

CITY           SKY/WX    TMP DP  RH WIND       PRES   REMARKS
WEST MEMPHIS   CLOUDY    89  77  67 VRB6      29.91F HX 101
$$

ARZ050-053-066-070-073-272200-
SOUTHWEST ARKANSAS

CITY           SKY/WX    TMP DP  RH WIND       PRES   REMARKS
CAMDEN         PTSUNNY   97  72  44 S5        29.94F HX 105
TEXARKANA      MOSUNNY   94  70  45 SW12      29.96F HX 100
EL DORADO      PTSUNNY   94  72  48 S8        29.97F HX 102
DE QUEEN       PTSUNNY   95  76  53 SW7       29.92F HX 108
$$

ARZ056-057-069-272200-
SOUTHEAST ARKANSAS

CITY           SKY/WX    TMP DP  RH WIND       PRES   REMARKS
PINE BLUFF     CLOUDY    91  75  59 SW10      29.94F HX 101
STUTTGART      PTSUNNY   93  70  46 SW10      29.94F HX  99
MONTICELLO     CLOUDY    94  74  52 SW9       29.95F HX 104

$$





USA.gov is the U.S. government's official web portal to all federal, state and local government web resources and services.